,,PressureMeas_1m,,PRMeasQMR101_1,,RHStat155_1m_1,,SRMeasQMS101R_1m,,TAStat155_1m_1,,GenWind_1,,GenWind_1,
2018-06-09, 07:00:06,VALID,918.034,VALID,0.0,VALID,91.165,VALID,113.169,VALID,18.202,VALID,113.0,VALID,0.0,
2018-06-09, 07:01:06,VALID,918.039,VALID,0.0,VALID,90.802,VALID,118.3,VALID,18.307,VALID,97.0,VALID,0.0,
2018-06-09, 07:02:06,VALID,918.015,VALID,0.0,VALID,90.553,VALID,121.6,VALID,18.376,VALID,89.0,VALID,0.0,
2018-06-09, 07:03:06,VALID,918.022,VALID,0.0,VALID,90.381,VALID,122.547,VALID,18.351,VALID,87.0,VALID,0.0,
2018-06-09, 07:04:06,VALID,918.029,VALID,0.0,VALID,90.542,VALID,119.138,VALID,18.316,VALID,94.0,VALID,0.0,
2018-06-09, 07:05:06,VALID,918.06,VALID,0.0,VALID,91.066,VALID,116.464,VALID,18.303,VALID,111.0,VALID,0.0,
2018-06-09, 07:06:06,VALID,918.083,VALID,0.0,VALID,91.15,VALID,113.011,VALID,18.336,VALID,120.0,VALID,0.0,
2018-06-09, 07:07:06,VALID,918.106,VALID,0.0,VALID,91.033,VALID,105.726,VALID,18.379,VALID,123.0,VALID,0.0,
2018-06-09, 07:08:06,VALID,918.121,VALID,0.0,VALID,90.323,VALID,99.903,VALID,18.499,VALID,127.0,VALID,0.0,
2018-06-09, 07:09:06,VALID,918.132,VALID,0.0,VALID,89.27,VALID,101.411,VALID,18.608,VALID,118.0,VALID,0.0,
2018-06-09, 07:10:06,VALID,918.158,VALID,0.0,VALID,88.978,VALID,108.58,VALID,18.664,VALID,109.0,VALID,0.0,
2018-06-09, 07:11:06,VALID,918.163,VALID,0.0,VALID,88.935,VALID,124.16,VALID,18.729,VALID,107.0,VALID,0.0,
2018-06-09, 07:12:06,VALID,918.182,VALID,0.0,VALID,88.903,VALID,148.346,VALID,18.764,VALID,110.0,VALID,0.0,
2018-06-09, 07:13:06,VALID,918.182,VALID,0.0,VALID,88.984,VALID,170.921,VALID,18.779,VALID,112.0,VALID,0.0,
2018-06-09, 07:14:06,VALID,918.201,VALID,0.0,VALID,89.209,VALID,180.054,VALID,18.797,VALID,124.0,VALID,0.0,
2018-06-09, 07:15:06,VALID,918.196,VALID,0.0,VALID,89.157,VALID,170.311,VALID,18.87,VALID,128.0,VALID,0.0,
2018-06-09, 07:16:06,VALID,918.221,VALID,0.0,VALID,87.997,VALID,143.2,VALID,18.949,VALID,126.0,VALID,0.0,
2018-06-09, 07:17:06,VALID,918.213,VALID,0.0,VALID,87.139,VALID,135.459,VALID,18.987,VALID,112.0,VALID,0.0,
2018-06-09, 07:18:06,VALID,918.196,VALID,0.0,VALID,87.635,VALID,147.621,VALID,19.019,VALID,103.0,VALID,0.0,
2018-06-09, 07:19:06,VALID,918.208,VALID,0.0,VALID,87.597,VALID,177.061,VALID,19.062,VALID,99.0,VALID,0.0,
2018-06-09, 07:20:06,VALID,918.233,VALID,0.0,VALID,87.621,VALID,210.172,VALID,19.114,VALID,98.0,VALID,0.0,
2018-06-09, 07:21:06,VALID,918.263,VALID,0.0,VALID,87.983,VALID,223.416,VALID,19.195,VALID,90.0,VALID,0.0,
2018-06-09, 07:22:06,VALID,918.278,VALID,0.0,VALID,87.236,VALID,234.162,VALID,19.298,VALID,93.0,VALID,0.0,
2018-06-09, 07:23:06,VALID,918.31,VALID,0.0,VALID,88.048,VALID,244.317,VALID,19.445,VALID,88.0,VALID,0.0,
2018-06-09, 07:24:06,VALID,918.317,VALID,0.0,VALID,86.97,VALID,249.978,VALID,19.62,VALID,93.0,VALID,0.0,
2018-06-09, 07:25:06,VALID,918.344,VALID,0.0,VALID,86.202,VALID,247.232,VALID,19.785,VALID,93.0,VALID,0.0,
2018-06-09, 07:26:06,VALID,918.342,VALID,0.0,VALID,86.619,VALID,242.529,VALID,19.999,VALID,84.0,VALID,0.0,
2018-06-09, 07:27:06,VALID,918.354,VALID,0.0,VALID,86.856,VALID,221.554,VALID,20.239,VALID,90.0,VALID,0.0,
2018-06-09, 07:28:06,VALID,918.349,VALID,0.0,VALID,85.636,VALID,207.796,VALID,20.475,VALID,74.0,VALID,0.0,
2018-06-09, 07:29:06,VALID,918.347,VALID,0.0,VALID,84.078,VALID,195.61,VALID,20.669,VALID,67.0,VALID,0.0,
2018-06-09, 07:30:06,VALID,918.324,VALID,0.0,VALID,83.572,VALID,195.363,VALID,20.77,VALID,75.0,VALID,0.0,
2018-06-09, 07:31:06,VALID,918.328,VALID,0.0,VALID,83.363,VALID,198.284,VALID,20.806,VALID,62.0,VALID,0.0,
2018-06-09, 07:32:06,VALID,918.337,VALID,0.0,VALID,82.689,VALID,205.612,VALID,20.827,VALID,66.0,VALID,0.0,
2018-06-09, 07:33:06,VALID,918.346,VALID,0.0,VALID,82.223,VALID,215.389,VALID,20.745,VALID,60.0,VALID,0.0,
2018-06-09, 07:34:06,VALID,918.365,VALID,0.0,VALID,82.163,VALID,196.454,VALID,20.704,VALID,62.0,VALID,0.0,
2018-06-09, 07:35:06,VALID,918.393,VALID,0.0,VALID,81.909,VALID,187.154,VALID,20.671,VALID,65.0,VALID,0.0,
2018-06-09, 07:36:06,VALID,918.418,VALID,0.0,VALID,82.808,VALID,169.583,VALID,20.747,VALID,64.0,VALID,0.0,
2018-06-09, 07:37:06,VALID,918.437,VALID,0.0,VALID,82.26,VALID,188.563,VALID,20.869,VALID,30.0,VALID,0.0,
2018-06-09, 07:38:06,VALID,918.446,VALID,0.0,VALID,82.178,VALID,266.724,VALID,20.963,VALID,17.0,VALID,0.0,
2018-06-09, 07:39:06,VALID,918.452,VALID,0.0,VALID,81.613,VALID,314.05,VALID,21.085,VALID,29.0,VALID,0.0,
2018-06-09, 07:40:06,VALID,918.465,VALID,0.0,VALID,81.402,VALID,329.155,VALID,21.217,VALID,22.0,VALID,0.0,
2018-06-09, 07:41:06,VALID,918.474,VALID,0.0,VALID,80.183,VALID,338.657,VALID,21.363,VALID,28.0,VALID,0.0,
2018-06-09, 07:42:06,VALID,918.487,VALID,0.0,VALID,78.592,VALID,346.466,VALID,21.482,VALID,31.0,VALID,0.0,
2018-06-09, 07:43:06,VALID,918.504,VALID,0.0,VALID,78.044,VALID,349.007,VALID,21.708,VALID,57.0,VALID,0.0,
2018-06-09, 07:44:06,VALID,918.514,VALID,0.0,VALID,76.366,VALID,345.239,VALID,21.86,VALID,58.0,VALID,0.0,
2018-06-09, 07:45:06,VALID,918.514,VALID,0.0,VALID,75.659,VALID,339.855,VALID,21.893,VALID,79.0,VALID,0.0,
2018-06-09, 07:46:06,VALID,918.515,VALID,0.0,VALID,76.717,VALID,341.071,VALID,21.983,VALID,85.0,VALID,0.0,
2018-06-09, 07:47:06,VALID,918.507,VALID,0.0,VALID,76.187,VALID,349.669,VALID,22.072,VALID,77.0,VALID,0.0,
2018-06-09, 07:48:06,VALID,918.49,VALID,0.0,VALID,77.365,VALID,356.634,VALID,22.213,VALID,88.0,VALID,0.0,
2018-06-09, 07:49:06,VALID,918.489,VALID,0.0,VALID,77.235,VALID,357.064,VALID,22.378,VALID,72.0,VALID,0.0,
2018-06-09, 07:50:06,VALID,918.477,VALID,0.0,VALID,76.309,VALID,360.857,VALID,22.526,VALID,86.0,VALID,0.0,
2018-06-09, 07:51:06,VALID,918.492,VALID,0.0,VALID,74.663,VALID,353.508,VALID,22.723,VALID,109.0,VALID,0.0,
2018-06-09, 07:52:06,VALID,918.514,VALID,0.0,VALID,73.912,VALID,336.335,VALID,22.849,VALID,89.0,VALID,0.0,
2018-06-09, 07:53:06,VALID,918.53,VALID,0.0,VALID,73.857,VALID,324.592,VALID,22.921,VALID,93.0,VALID,0.0,
2018-06-09, 07:54:06,VALID,918.541,VALID,0.0,VALID,73.193,VALID,293.245,VALID,22.946,VALID,79.0,VALID,0.0,
2018-06-09, 07:55:06,VALID,918.544,VALID,0.0,VALID,73.085,VALID,244.33,VALID,22.932,VALID,62.0,VALID,0.0,
2018-06-09, 07:56:06,VALID,918.552,VALID,0.0,VALID,74.874,VALID,245.837,VALID,22.911,VALID,54.0,VALID,0.0,
2018-06-09, 07:57:06,VALID,918.554,VALID,0.0,VALID,75.022,VALID,300.071,VALID,22.955,VALID,72.0,VALID,0.0,
2018-06-09, 07:58:06,VALID,918.556,VALID,0.0,VALID,76.616,VALID,294.802,VALID,22.895,VALID,74.0,VALID,0.0,
2018-06-09, 07:59:06,VALID,918.555,VALID,0.0,VALID,76.053,VALID,270.933,VALID,22.884,VALID,107.0,VALID,0.0,
2018-06-09, 08:00:06,VALID,918.547,VALID,0.0,VALID,75.051,VALID,334.186,VALID,22.777,VALID,117.0,VALID,0.0,
2018-06-09, 08:01:06,VALID,918.535,VALID,0.0,VALID,74.972,VALID,394.83,VALID,22.582,VALID,115.0,VALID,0.0,
2018-06-09, 08:02:06,VALID,918.541,VALID,0.0,VALID,75.456,VALID,408.19,VALID,22.402,VALID,117.0,VALID,0.0,
2018-06-09, 08:03:06,VALID,918.536,VALID,0.0,VALID,75.313,VALID,411.308,VALID,22.182,VALID,125.0,VALID,0.0,
2018-06-09, 08:04:06,VALID,918.54,VALID,0.0,VALID,76.576,VALID,412.312,VALID,21.977,VALID,119.0,VALID,0.0,
2018-06-09, 08:05:06,VALID,918.541,VALID,0.0,VALID,77.942,VALID,392.511,VALID,21.958,VALID,114.0,VALID,0.0,
2018-06-09, 08:06:06,VALID,918.531,VALID,0.0,VALID,77.702,VALID,380.101,VALID,22.036,VALID,109.0,VALID,0.0,
2018-06-09, 08:07:06,VALID,918.52,VALID,0.0,VALID,77.397,VALID,386.884,VALID,22.151,VALID,100.0,VALID,0.0,
2018-06-09, 08:08:06,VALID,918.517,VALID,0.0,VALID,77.559,VALID,411.086,VALID,22.223,VALID,84.0,VALID,0.0,
2018-06-09, 08:09:06,VALID,918.508,VALID,0.0,VALID,78.997,VALID,415.382,VALID,22.45,VALID,93.0,VALID,0.0,
2018-06-09, 08:10:06,VALID,918.514,VALID,0.0,VALID,76.035,VALID,424.836,VALID,22.699,VALID,109.0,VALID,0.0,
2018-06-09, 08:11:06,VALID,918.529,VALID,0.0,VALID,75.718,VALID,437.353,VALID,22.75,VALID,106.0,VALID,0.0,
2018-06-09, 08:12:06,VALID,918.546,VALID,0.0,VALID,75.923,VALID,441.464,VALID,22.795,VALID,101.0,VALID,0.0,
2018-06-09, 08:13:06,VALID,918.558,VALID,0.0,VALID,74.502,VALID,440.854,VALID,22.791,VALID,122.0,VALID,0.0,
2018-06-09, 08:14:06,VALID,918.582,VALID,0.0,VALID,76.341,VALID,440.52,VALID,22.795,VALID,140.0,VALID,0.0,
2018-06-09, 08:15:06,VALID,918.596,VALID,0.0,VALID,76.009,VALID,449.95,VALID,22.947,VALID,138.0,VALID,0.0,
2018-06-09, 08:16:06,VALID,918.612,VALID,0.0,VALID,75.275,VALID,452.624,VALID,22.886,VALID,126.0,VALID,0.0,
2018-06-09, 08:17:06,VALID,918.606,VALID,0.0,VALID,74.471,VALID,454.625,VALID,22.51,VALID,130.0,VALID,0.0,
2018-06-09, 08:18:06,VALID,918.601,VALID,0.0,VALID,75.866,VALID,455.459,VALID,22.266,VALID,124.0,VALID,0.0,
2018-06-09, 08:19:06,VALID,918.584,VALID,0.0,VALID,78.364,VALID,457.357,VALID,21.905,VALID,118.0,VALID,0.0,
2018-06-09, 08:20:06,VALID,918.573,VALID,0.0,VALID,79.92,VALID,459.493,VALID,21.705,VALID,123.0,VALID,0.0,
2018-06-09, 08:21:06,VALID,918.551,VALID,0.0,VALID,79.926,VALID,461.547,VALID,21.607,VALID,128.0,VALID,0.0,
2018-06-09, 08:22:06,VALID,918.552,VALID,0.0,VALID,79.573,VALID,462.111,VALID,21.609,VALID,129.0,VALID,0.0,
2018-06-09, 08:23:06,VALID,918.541,VALID,0.0,VALID,79.369,VALID,466.461,VALID,21.675,VALID,130.0,VALID,0.0,
2018-06-09, 08:24:06,VALID,918.534,VALID,0.0,VALID,79.255,VALID,468.773,VALID,21.797,VALID,129.0,VALID,0.0,
2018-06-09, 08:25:06,VALID,918.524,VALID,0.0,VALID,78.103,VALID,471.116,VALID,21.904,VALID,138.0,VALID,0.0,
2018-06-09, 08:26:06,VALID,918.522,VALID,0.0,VALID,78.338,VALID,473.959,VALID,22.089,VALID,130.0,VALID,0.0,
2018-06-09, 08:27:06,VALID,918.516,VALID,0.0,VALID,77.624,VALID,476.884,VALID,22.233,VALID,133.0,VALID,0.0,
2018-06-09, 08:28:06,VALID,918.531,VALID,0.0,VALID,77.463,VALID,479.084,VALID,22.398,VALID,136.0,VALID,0.0,
2018-06-09, 08:29:06,VALID,918.518,VALID,0.0,VALID,76.045,VALID,481.659,VALID,22.573,VALID,131.0,VALID,0.0,
2018-06-09, 08:30:06,VALID,918.512,VALID,0.0,VALID,75.474,VALID,484.421,VALID,22.805,VALID,131.0,VALID,0.0,
2018-06-09, 08:31:06,VALID,918.511,VALID,0.0,VALID,74.68,VALID,487.393,VALID,23.006,VALID,131.0,VALID,0.0,
2018-06-09, 08:32:06,VALID,918.507,VALID,0.0,VALID,74.544,VALID,490.472,VALID,23.118,VALID,134.0,VALID,0.0,
2018-06-09, 08:33:06,VALID,918.509,VALID,0.0,VALID,73.515,VALID,493.793,VALID,23.108,VALID,136.0,VALID,0.0,
2018-06-09, 08:34:06,VALID,918.5,VALID,0.0,VALID,73.579,VALID,497.477,VALID,23.131,VALID,138.0,VALID,0.0,
2018-06-09, 08:35:06,VALID,918.492,VALID,0.0,VALID,73.347,VALID,500.482,VALID,23.263,VALID,147.0,VALID,0.0,
2018-06-09, 08:36:06,VALID,918.507,VALID,0.0,VALID,73.024,VALID,502.195,VALID,23.294,VALID,123.0,VALID,0.0,
2018-06-09, 08:37:06,VALID,918.514,VALID,0.0,VALID,73.34,VALID,501.433,VALID,23.201,VALID,133.0,VALID,0.0,
2018-06-09, 08:38:06,VALID,918.527,VALID,0.0,VALID,72.233,VALID,509.492,VALID,23.309,VALID,130.0,VALID,0.0,
2018-06-09, 08:39:06,VALID,918.548,VALID,0.0,VALID,71.65,VALID,513.228,VALID,23.308,VALID,121.0,VALID,0.0,
2018-06-09, 08:40:06,VALID,918.57,VALID,0.0,VALID,70.158,VALID,518.813,VALID,23.24,VALID,128.0,VALID,0.0,
2018-06-09, 08:41:06,VALID,918.594,VALID,0.0,VALID,69.457,VALID,522.915,VALID,23.445,VALID,124.0,VALID,0.0,
2018-06-09, 08:42:06,VALID,918.61,VALID,0.0,VALID,66.532,VALID,527.212,VALID,23.725,VALID,128.0,VALID,0.0,
2018-06-09, 08:43:06,VALID,918.637,VALID,0.0,VALID,66.156,VALID,529.652,VALID,24.002,VALID,144.0,VALID,0.0,
2018-06-09, 08:44:06,VALID,918.659,VALID,0.0,VALID,63.384,VALID,527.436,VALID,24.261,VALID,125.0,VALID,0.0,
2018-06-09, 08:45:06,VALID,918.664,VALID,0.0,VALID,62.826,VALID,524.21,VALID,24.283,VALID,134.0,VALID,0.0,
2018-06-09, 08:46:06,VALID,918.679,VALID,0.0,VALID,62.249,VALID,521.295,VALID,24.358,VALID,127.0,VALID,0.0,
2018-06-09, 08:47:06,VALID,918.689,VALID,0.0,VALID,63.264,VALID,516.246,VALID,24.418,VALID,112.0,VALID,0.0,
2018-06-09, 08:48:06,VALID,918.702,VALID,0.0,VALID,64.915,VALID,508.287,VALID,24.552,VALID,123.0,VALID,0.0,
2018-06-09, 08:49:06,VALID,918.714,VALID,0.0,VALID,62.937,VALID,528.106,VALID,24.474,VALID,107.0,VALID,0.0,
2018-06-09, 08:50:06,VALID,918.724,VALID,0.0,VALID,63.562,VALID,522.872,VALID,24.486,VALID,109.0,VALID,0.0,
2018-06-09, 08:51:06,VALID,918.719,VALID,0.0,VALID,62.543,VALID,538.041,VALID,24.608,VALID,100.0,VALID,0.0,
2018-06-09, 08:52:06,VALID,918.708,VALID,0.0,VALID,63.92,VALID,542.255,VALID,24.786,VALID,106.0,VALID,0.0,
2018-06-09, 08:53:06,VALID,918.696,VALID,0.0,VALID,60.642,VALID,533.458,VALID,24.693,VALID,111.0,VALID,0.0,
2018-06-09, 08:54:06,VALID,918.7,VALID,0.0,VALID,64.71,VALID,531.262,VALID,24.662,VALID,101.0,VALID,0.0,
2018-06-09, 08:55:06,VALID,918.697,VALID,0.0,VALID,64.845,VALID,529.373,VALID,24.922,VALID,131.0,VALID,0.0,
2018-06-09, 08:56:06,VALID,918.714,VALID,0.0,VALID,65.186,VALID,533.005,VALID,25.186,VALID,104.0,VALID,0.0,
2018-06-09, 08:57:06,VALID,918.731,VALID,0.0,VALID,62.583,VALID,525.739,VALID,25.397,VALID,113.0,VALID,0.0,
2018-06-09, 08:58:06,VALID,918.752,VALID,0.0,VALID,60.32,VALID,529.518,VALID,25.508,VALID,129.0,VALID,0.0,
2018-06-09, 08:59:06,VALID,918.77,VALID,0.0,VALID,58.247,VALID,513.434,VALID,25.509,VALID,114.0,VALID,0.0,
2018-06-09, 09:00:06,VALID,918.798,VALID,0.0,VALID,60.659,VALID,533.112,VALID,25.446,VALID,97.0,VALID,0.0,
2018-06-09, 09:01:06,VALID,918.819,VALID,0.0,VALID,61.388,VALID,531.129,VALID,25.586,VALID,124.0,VALID,0.0,
2018-06-09, 09:02:06,VALID,918.837,VALID,0.0,VALID,58.87,VALID,528.016,VALID,25.693,VALID,129.0,VALID,0.0,
2018-06-09, 09:03:06,VALID,918.852,VALID,0.0,VALID,59.364,VALID,527.461,VALID,25.68,VALID,133.0,VALID,0.0,
2018-06-09, 09:04:06,VALID,918.837,VALID,0.0,VALID,59.165,VALID,520.862,VALID,25.527,VALID,136.0,VALID,0.0,
2018-06-09, 09:05:06,VALID,918.848,VALID,0.0,VALID,59.557,VALID,533.555,VALID,25.408,VALID,116.0,VALID,0.0,
2018-06-09, 09:06:06,VALID,918.836,VALID,0.0,VALID,59.693,VALID,519.157,VALID,25.391,VALID,126.0,VALID,0.0,
2018-06-09, 09:07:06,VALID,918.836,VALID,0.0,VALID,60.694,VALID,549.308,VALID,25.549,VALID,113.0,VALID,0.0,
2018-06-09, 09:08:06,VALID,918.847,VALID,0.0,VALID,59.178,VALID,560.97,VALID,25.789,VALID,80.0,VALID,0.0,
2018-06-09, 09:09:06,VALID,918.848,VALID,0.0,VALID,58.8,VALID,558.996,VALID,25.996,VALID,82.0,VALID,0.0,
2018-06-09, 09:10:06,VALID,918.862,VALID,0.0,VALID,59.54,VALID,539.93,VALID,26.063,VALID,89.0,VALID,0.0,
2018-06-09, 09:11:06,VALID,918.872,VALID,0.0,VALID,61.611,VALID,563.017,VALID,25.989,VALID,101.0,VALID,0.0,
2018-06-09, 09:12:06,VALID,918.874,VALID,0.0,VALID,61.08,VALID,551.865,VALID,26.094,VALID,71.0,VALID,0.0,
2018-06-09, 09:13:06,VALID,918.861,VALID,0.0,VALID,60.624,VALID,556.668,VALID,26.239,VALID,90.0,VALID,0.0,
2018-06-09, 09:14:06,VALID,918.855,VALID,0.0,VALID,59.236,VALID,545.919,VALID,26.216,VALID,188.0,VALID,0.0,
2018-06-09, 09:15:06,VALID,918.838,VALID,0.0,VALID,59.905,VALID,574.552,VALID,25.928,VALID,179.0,VALID,0.0,
2018-06-09, 09:16:06,VALID,918.825,VALID,0.0,VALID,60.963,VALID,547.243,VALID,25.786,VALID,179.0,VALID,0.0,
2018-06-09, 09:17:06,VALID,918.827,VALID,0.0,VALID,62.163,VALID,526.759,VALID,25.962,VALID,104.0,VALID,0.0,
2018-06-09, 09:18:06,VALID,918.824,VALID,0.0,VALID,61.27,VALID,498.478,VALID,26.278,INVALID,360.0,VALID,0.0,
2018-06-09, 09:19:06,VALID,918.846,VALID,0.0,VALID,59.619,VALID,480.08,VALID,26.316,INVALID,360.0,VALID,0.0,
2018-06-09, 09:20:06,VALID,918.838,VALID,0.0,VALID,59.385,VALID,470.011,VALID,26.066,INVALID,360.0,VALID,0.0,
2018-06-09, 09:21:06,VALID,918.835,VALID,0.0,VALID,61.167,VALID,469.411,VALID,25.914,INVALID,360.0,VALID,0.0,
2018-06-09, 09:22:06,VALID,918.832,VALID,0.0,VALID,62.917,VALID,538.506,VALID,26.088,INVALID,360.0,VALID,0.0,
2018-06-09, 09:23:06,VALID,918.826,VALID,0.0,VALID,62.121,VALID,547.768,VALID,26.145,INVALID,360.0,VALID,0.0,
2018-06-09, 09:24:06,VALID,918.814,VALID,0.0,VALID,59.944,VALID,613.895,VALID,26.081,INVALID,360.0,VALID,0.0,
2018-06-09, 09:25:06,VALID,918.824,VALID,0.0,VALID,60.502,VALID,628.614,VALID,25.995,INVALID,360.0,VALID,0.0,
2018-06-09, 09:26:06,VALID,918.826,VALID,0.0,VALID,59.19,VALID,616.636,VALID,26.102,INVALID,360.0,VALID,0.0,
2018-06-09, 09:27:06,VALID,918.806,VALID,0.0,VALID,61.078,VALID,567.834,VALID,26.067,INVALID,360.0,VALID,0.0,
2018-06-09, 09:28:06,VALID,918.799,VALID,0.0,VALID,60.847,VALID,535.331,VALID,26.313,INVALID,360.0,VALID,0.0,
2018-06-09, 09:29:06,VALID,918.799,VALID,0.0,VALID,59.841,VALID,536.715,VALID,26.413,INVALID,360.0,VALID,0.0,
2018-06-09, 09:30:06,VALID,918.789,VALID,0.0,VALID,58.787,VALID,572.542,VALID,26.269,INVALID,360.0,VALID,0.0,
2018-06-09, 09:31:06,VALID,918.8,VALID,0.0,VALID,58.676,VALID,601.224,VALID,26.243,INVALID,360.0,VALID,0.0,
2018-06-09, 09:32:06,VALID,918.79,VALID,0.0,VALID,59.604,VALID,573.429,VALID,26.24,INVALID,360.0,VALID,0.0,
2018-06-09, 09:33:06,VALID,918.789,VALID,0.0,VALID,59.651,VALID,532.615,VALID,26.406,INVALID,360.0,VALID,0.0,
2018-06-09, 09:34:06,VALID,918.791,VALID,0.0,VALID,59.229,VALID,477.09,VALID,26.511,INVALID,360.0,VALID,0.0,
2018-06-09, 09:35:06,VALID,918.796,VALID,0.0,VALID,59.421,VALID,511.21,VALID,26.684,INVALID,360.0,VALID,0.0,
2018-06-09, 09:36:06,VALID,918.799,VALID,0.0,VALID,59.61,VALID,535.199,VALID,26.918,INVALID,360.0,VALID,0.0,
2018-06-09, 09:37:06,VALID,918.79,VALID,0.0,VALID,60.769,VALID,536.993,VALID,27.117,INVALID,360.0,VALID,0.0,
2018-06-09, 09:38:06,VALID,918.811,VALID,0.0,VALID,58.46,VALID,560.057,VALID,27.189,VALID,25.0,VALID,0.0,
2018-06-09, 09:39:06,VALID,918.806,VALID,0.0,VALID,56.35,VALID,582.781,VALID,26.764,INVALID,360.0,VALID,0.0,
2018-06-09, 09:40:06,VALID,918.825,VALID,0.0,VALID,57.402,VALID,543.188,VALID,26.399,INVALID,360.0,VALID,0.0,
2018-06-09, 09:41:06,VALID,918.809,VALID,0.0,VALID,58.335,VALID,558.823,VALID,26.06,INVALID,360.0,VALID,0.0,
2018-06-09, 09:42:06,VALID,918.81,VALID,0.0,VALID,59.894,VALID,583.024,VALID,25.818,INVALID,360.0,VALID,0.0,
2018-06-09, 09:43:06,VALID,918.793,VALID,0.0,VALID,59.913,VALID,586.008,VALID,25.783,INVALID,360.0,VALID,0.0,
2018-06-09, 09:44:06,VALID,918.805,VALID,0.0,VALID,59.392,VALID,513.021,VALID,26.06,INVALID,360.0,VALID,0.0,
2018-06-09, 09:45:06,VALID,918.806,VALID,0.0,VALID,58.726,VALID,488.34,VALID,26.169,INVALID,360.0,VALID,0.0,
2018-06-09, 09:46:06,VALID,918.815,VALID,0.0,VALID,58.575,VALID,542.18,VALID,26.239,INVALID,360.0,VALID,0.0,
2018-06-09, 09:47:06,VALID,918.825,VALID,0.0,VALID,58.31,VALID,548.737,VALID,26.086,INVALID,360.0,VALID,0.0,
2018-06-09, 09:48:06,VALID,918.826,VALID,0.0,VALID,59.659,VALID,544.241,VALID,25.902,INVALID,360.0,VALID,0.0,
2018-06-09, 09:49:06,VALID,918.831,VALID,0.0,VALID,58.591,VALID,559.629,VALID,25.69,INVALID,360.0,VALID,0.0,
2018-06-09, 09:50:06,VALID,918.827,VALID,0.0,VALID,58.55,VALID,552.833,VALID,25.397,INVALID,360.0,VALID,0.0,
2018-06-09, 09:51:06,VALID,918.83,VALID,0.0,VALID,60.476,VALID,502.902,VALID,25.296,INVALID,360.0,VALID,0.0,
2018-06-09, 09:52:06,VALID,918.847,VALID,0.0,VALID,60.662,VALID,497.837,VALID,25.281,INVALID,360.0,VALID,0.0,
2018-06-09, 09:53:06,VALID,918.872,VALID,0.0,VALID,59.538,VALID,498.808,VALID,25.305,INVALID,360.0,VALID,0.0,
2018-06-09, 09:54:06,VALID,918.885,VALID,0.0,VALID,59.255,VALID,478.138,VALID,25.458,VALID,204.0,VALID,0.0,
2018-06-09, 09:55:06,VALID,918.911,VALID,0.0,VALID,60.003,VALID,403.099,VALID,25.689,VALID,90.0,VALID,0.0,
2018-06-09, 09:56:06,VALID,918.911,VALID,0.0,VALID,60.189,VALID,377.048,VALID,25.982,INVALID,360.0,VALID,0.0,
2018-06-09, 09:57:06,VALID,918.911,VALID,0.0,VALID,60.801,VALID,394.163,VALID,26.042,INVALID,360.0,VALID,0.0,
2018-06-09, 09:58:06,VALID,918.899,VALID,0.0,VALID,61.643,VALID,398.187,VALID,25.864,INVALID,360.0,VALID,0.0,
2018-06-09, 09:59:06,VALID,918.893,VALID,0.0,VALID,61.369,VALID,367.761,VALID,25.716,VALID,260.0,VALID,0.0,
2018-06-09, 10:00:06,VALID,918.877,VALID,0.0,VALID,63.372,VALID,346.335,VALID,25.628,INVALID,360.0,VALID,0.0,
2018-06-09, 10:01:06,VALID,918.875,VALID,0.0,VALID,63.711,VALID,325.504,VALID,25.45,INVALID,360.0,VALID,0.0,
2018-06-09, 10:02:06,VALID,918.872,VALID,0.0,VALID,65.006,VALID,326.426,VALID,25.281,INVALID,360.0,VALID,0.0,
2018-06-09, 10:03:06,VALID,918.849,VALID,0.0,VALID,65.52,VALID,330.893,VALID,25.177,INVALID,360.0,VALID,0.0,
2018-06-09, 10:04:06,VALID,918.847,VALID,0.0,VALID,65.014,VALID,332.766,VALID,25.125,INVALID,360.0,VALID,0.0,
2018-06-09, 10:05:06,VALID,918.848,VALID,0.0,VALID,66.162,VALID,332.134,VALID,25.037,INVALID,360.0,VALID,0.0,
2018-06-09, 10:06:06,VALID,918.843,VALID,0.0,VALID,66.64,VALID,347.109,VALID,24.983,INVALID,360.0,VALID,0.0,
2018-06-09, 10:07:06,VALID,918.848,VALID,0.0,VALID,66.745,VALID,368.854,VALID,24.876,INVALID,360.0,VALID,0.0,
2018-06-09, 10:08:06,VALID,918.845,VALID,0.0,VALID,66.629,VALID,366.417,VALID,24.825,INVALID,360.0,VALID,0.0,
2018-06-09, 10:09:06,VALID,918.838,VALID,0.0,VALID,66.629,VALID,377.662,VALID,24.752,INVALID,360.0,VALID,0.0,
2018-06-09, 10:10:06,VALID,918.839,VALID,0.0,VALID,67.235,VALID,405.475,VALID,24.779,INVALID,360.0,VALID,0.0,
2018-06-09, 10:11:06,VALID,918.823,VALID,0.0,VALID,66.796,VALID,423.111,VALID,24.793,INVALID,360.0,VALID,0.0,
2018-06-09, 10:12:06,VALID,918.835,VALID,0.0,VALID,67.188,VALID,416.359,VALID,24.842,INVALID,360.0,VALID,0.0,
2018-06-09, 10:13:06,VALID,918.845,VALID,0.0,VALID,64.785,VALID,411.78,VALID,24.863,INVALID,360.0,VALID,0.0,
2018-06-09, 10:14:06,VALID,918.846,VALID,0.0,VALID,62.175,VALID,407.27,VALID,24.813,INVALID,360.0,VALID,0.0,
2018-06-09, 10:15:06,VALID,918.874,VALID,0.0,VALID,61.185,VALID,411.599,VALID,24.745,INVALID,360.0,VALID,0.0,
2018-06-09, 10:16:06,VALID,918.896,VALID,0.0,VALID,63.297,VALID,421.499,VALID,24.849,INVALID,360.0,VALID,0.0,
2018-06-09, 10:17:06,VALID,918.898,VALID,0.0,VALID,63.503,VALID,459.88,VALID,24.962,INVALID,360.0,VALID,0.0,
2018-06-09, 10:18:06,VALID,918.909,VALID,0.0,VALID,65.008,VALID,461.517,VALID,25.215,VALID,273.0,VALID,0.0,
2018-06-09, 10:19:06,VALID,918.92,VALID,0.0,VALID,63.245,VALID,485.064,VALID,25.542,INVALID,360.0,VALID,0.0,
2018-06-09, 10:20:06,VALID,918.905,VALID,0.0,VALID,60.513,VALID,510.205,VALID,25.54,INVALID,360.0,VALID,0.0,
2018-06-09, 10:21:06,VALID,918.905,VALID,0.0,VALID,59.674,VALID,577.457,VALID,25.515,INVALID,360.0,VALID,0.0,
2018-06-09, 10:22:06,VALID,918.899,VALID,0.0,VALID,58.077,VALID,620.071,VALID,25.426,INVALID,360.0,VALID,0.0,
2018-06-09, 10:23:06,VALID,918.881,VALID,0.0,VALID,60.397,VALID,626.243,VALID,25.474,INVALID,360.0,VALID,0.0,
2018-06-09, 10:24:06,VALID,918.866,VALID,0.0,VALID,58.884,VALID,577.137,VALID,25.535,INVALID,360.0,VALID,0.0,
2018-06-09, 10:25:06,VALID,918.86,VALID,0.0,VALID,58.971,VALID,600.679,VALID,25.497,INVALID,360.0,VALID,0.0,
2018-06-09, 10:26:06,VALID,918.861,VALID,0.0,VALID,60.897,VALID,565.516,VALID,25.439,INVALID,360.0,VALID,0.0,
2018-06-09, 10:27:06,VALID,918.85,VALID,0.0,VALID,61.85,VALID,561.82,VALID,25.504,INVALID,360.0,VALID,0.0,
2018-06-09, 10:28:06,VALID,918.853,VALID,0.0,VALID,59.47,VALID,550.081,VALID,25.596,INVALID,360.0,VALID,0.0,
2018-06-09, 10:29:06,VALID,918.838,VALID,0.0,VALID,60.76,VALID,574.561,VALID,25.481,INVALID,360.0,VALID,0.0,
2018-06-09, 10:30:06,VALID,918.846,VALID,0.0,VALID,58.187,VALID,629.324,VALID,25.314,INVALID,360.0,VALID,0.0,
2018-06-09, 10:31:06,VALID,918.829,VALID,0.0,VALID,58.059,VALID,632.138,VALID,25.246,INVALID,360.0,VALID,0.0,
2018-06-09, 10:32:06,VALID,918.815,VALID,0.0,VALID,59.507,VALID,637.843,VALID,25.21,INVALID,360.0,VALID,0.0,
2018-06-09, 10:33:06,VALID,918.812,VALID,0.0,VALID,58.871,VALID,659.152,VALID,25.186,INVALID,360.0,VALID,0.0,
2018-06-09, 10:34:06,VALID,918.804,VALID,0.0,VALID,60.002,VALID,683.312,VALID,25.198,INVALID,360.0,VALID,0.0,
2018-06-09, 10:35:06,VALID,918.809,VALID,0.0,VALID,60.375,VALID,682.394,VALID,25.272,INVALID,360.0,VALID,0.0,
2018-06-09, 10:36:06,VALID,918.818,VALID,0.0,VALID,61.73,VALID,668.383,VALID,25.453,INVALID,360.0,VALID,0.0,
2018-06-09, 10:37:06,VALID,918.824,VALID,0.0,VALID,61.564,VALID,617.974,VALID,25.59,INVALID,360.0,VALID,0.0,
2018-06-09, 10:38:06,VALID,918.839,VALID,0.0,VALID,60.203,VALID,552.323,VALID,25.637,INVALID,360.0,VALID,0.0,